DAL1563 KLAX-KMCI

Flight info

Callsign DAL1563
Flight time N/A
Altitude 35000
Route ORCKA5 LAS J146 DVC DDC ZOURA WUTNG3
Aircraft A319/M-SDE3FGHIRWY/LB1

Departure

Time N/A
Airport Los Angeles International Airport (KLAX)

Arrival

Time 2026-05-04 08:29
Airport Kansas City International Airport (KMCI)
Time Latitude Longitude Altitude Speed Heading
2026-05-04 07:52 38.07095 -96.66849 31182 ft 430 kts 42°
2026-05-04 07:52 38.09074 -96.64013 30932 ft 429 kts 42°
2026-05-04 07:52 38.11046 -96.61188 30685 ft 427 kts 42°
2026-05-04 07:52 38.13010 -96.58369 30433 ft 425 kts 43°
2026-05-04 07:53 38.14966 -96.55556 30181 ft 423 kts 43°
2026-05-04 07:54 38.28385 -96.36219 28429 ft 411 kts 43°
2026-05-04 07:55 38.30270 -96.33490 28181 ft 409 kts 43°
2026-05-04 07:55 38.32144 -96.30775 27934 ft 408 kts 43°
2026-05-04 07:55 38.33990 -96.28095 27682 ft 407 kts 43°
2026-05-04 07:55 38.35878 -96.25359 27428 ft 405 kts 43°
2026-05-04 07:56 38.37706 -96.22711 27180 ft 403 kts 43°
2026-05-04 07:56 38.39563 -96.20019 26929 ft 402 kts 43°
2026-05-04 07:56 38.41403 -96.17345 26670 ft 401 kts 43°
2026-05-04 07:56 38.43234 -96.14678 26424 ft 400 kts 44°
2026-05-04 07:57 38.45063 -96.12011 26180 ft 398 kts 44°
2026-05-04 07:57 38.46881 -96.09353 25930 ft 397 kts 44°
2026-05-04 07:57 38.48692 -96.06707 25671 ft 395 kts 44°
2026-05-04 07:57 38.50492 -96.04081 25356 ft 391 kts 44°
2026-05-04 07:58 38.52282 -96.01474 24899 ft 390 kts 44°
2026-05-04 07:58 38.54063 -95.98874 24413 ft 389 kts 44°
2026-05-04 07:58 38.55841 -95.96271 23929 ft 388 kts 44°
2026-05-04 07:58 38.57608 -95.93676 23435 ft 387 kts 44°
2026-05-04 07:59 38.59373 -95.91081 22949 ft 386 kts 44°
2026-05-04 07:59 38.61135 -95.88494 22466 ft 385 kts 44°
2026-05-04 07:59 38.62899 -95.85906 21990 ft 384 kts 44°
2026-05-04 07:59 38.64649 -95.83339 21510 ft 383 kts 44°
2026-05-04 08:00 38.66374 -95.80807 21045 ft 382 kts 44°
2026-05-04 08:00 38.68115 -95.78251 20586 ft 380 kts 44°
2026-05-04 08:00 38.69853 -95.75696 20110 ft 379 kts 44°
2026-05-04 08:02 38.81808 -95.58013 16933 ft 370 kts 45°
2026-05-04 08:02 38.83484 -95.55527 16503 ft 368 kts 45°
2026-05-04 08:02 38.85155 -95.53050 16073 ft 367 kts 45°
2026-05-04 08:03 38.86800 -95.50611 15692 ft 364 kts 45°
2026-05-04 08:03 38.88458 -95.48153 15247 ft 364 kts 45°
2026-05-04 08:03 38.90112 -95.45696 14828 ft 363 kts 45°
2026-05-04 08:03 38.91750 -95.43256 14466 ft 359 kts 45°
2026-05-04 08:04 38.93382 -95.40822 14061 ft 358 kts 45°
2026-05-04 08:04 38.95007 -95.38398 13637 ft 357 kts 46°
2026-05-04 08:04 38.96631 -95.35976 13200 ft 356 kts 46°
2026-05-04 08:04 38.98244 -95.33573 12758 ft 356 kts 46°
2026-05-04 08:05 38.99850 -95.31174 12376 ft 352 kts 46°
2026-05-04 08:05 39.01440 -95.28791 11962 ft 350 kts 46°
2026-05-04 08:05 39.03028 -95.26408 11579 ft 348 kts 46°
2026-05-04 08:05 39.04607 -95.24041 11132 ft 348 kts 46°
2026-05-04 08:06 39.06155 -95.21725 10672 ft 347 kts 47°
2026-05-04 08:06 39.07718 -95.19387 10300 ft 343 kts 47°
2026-05-04 08:06 39.09281 -95.17041 9856 ft 343 kts 47°
2026-05-04 08:06 39.10806 -95.14751 9719 ft 331 kts 47°
2026-05-04 08:08 39.20926 -94.99521 9749 ft 318 kts 47°
2026-05-04 08:08 39.22367 -94.97347 9750 ft 318 kts 47°
2026-05-04 08:10 39.33547 -94.80398 9748 ft 284 kts 47°
2026-05-04 08:11 39.34796 -94.78495 9749 ft 274 kts 47°
2026-05-04 08:11 39.36726 -94.74376 9747 ft 272 kts 88°
2026-05-04 08:11 39.36337 -94.72059 9751 ft 263 kts 127°
2026-05-04 08:12 39.35036 -94.70555 9749 ft 247 kts 166°
2026-05-04 08:12 39.33413 -94.70387 9756 ft 232 kts 198°
2026-05-04 08:12 39.31899 -94.71001 9752 ft 230 kts 207°
2026-05-04 08:12 39.30590 -94.72082 9743 ft 221 kts 236°
2026-05-04 08:13 39.30145 -94.73931 9748 ft 221 kts 272°
2026-05-04 08:13 39.30260 -94.75917 9746 ft 223 kts 264°
2026-05-04 08:13 39.29674 -94.77734 9752 ft 223 kts 234°
2026-05-04 08:13 39.28610 -94.79209 9750 ft 226 kts 226°
2026-05-04 08:14 39.27438 -94.80561 9748 ft 226 kts 224°
2026-05-04 08:14 39.26258 -94.81891 9748 ft 226 kts 224°
2026-05-04 08:14 39.25084 -94.83243 9750 ft 225 kts 225°
2026-05-04 08:16 39.17166 -94.92960 9750 ft 225 kts 227°
2026-05-04 08:16 39.16044 -94.94369 9749 ft 225 kts 227°
2026-05-04 08:16 39.14812 -94.95617 9675 ft 231 kts 210°
2026-05-04 08:17 39.13142 -94.96035 9458 ft 268 kts 179°
2026-05-04 08:17 39.11364 -94.95103 9249 ft 290 kts 144°
2026-05-04 08:17 39.10194 -94.92959 9056 ft 301 kts 110°
2026-05-04 08:17 39.10065 -94.90264 8855 ft 307 kts 77°
2026-05-04 08:19 39.22090 -94.80921 7452 ft 277 kts
2026-05-04 08:19 39.23961 -94.80669 7230 ft 271 kts
2026-05-04 08:20 39.25811 -94.80429 7002 ft 264 kts
2026-05-04 08:20 39.27618 -94.80197 6776 ft 258 kts
2026-05-04 08:20 39.29382 -94.79972 6552 ft 252 kts
2026-05-04 08:20 39.31114 -94.79754 6326 ft 249 kts
2026-05-04 08:21 39.32833 -94.79545 6097 ft 247 kts
2026-05-04 08:21 39.34548 -94.79341 5869 ft 247 kts
2026-05-04 08:21 39.36258 -94.79143 5643 ft 246 kts
2026-05-04 08:21 39.37962 -94.78948 5405 ft 245 kts
2026-05-04 08:22 39.39654 -94.78763 5193 ft 244 kts
2026-05-04 08:22 39.41341 -94.78592 4967 ft 242 kts
2026-05-04 08:24 39.48218 -94.71103 3876 ft 226 kts 124°
2026-05-04 08:24 39.47156 -94.69700 3708 ft 213 kts 148°
2026-05-04 08:24 39.45939 -94.68684 3573 ft 203 kts 157°
2026-05-04 08:24 39.44663 -94.68241 3475 ft 180 kts 177°
2026-05-04 08:25 39.43858 -94.68239 3385 ft 169 kts 186°
2026-05-04 08:25 39.42405 -94.68707 3105 ft 155 kts 208°
2026-05-04 08:25 39.41478 -94.69348 2867 ft 148 kts 201°
2026-05-04 08:25 39.40817 -94.69558 2709 ft 147 kts 191°
2026-05-04 08:26 39.39841 -94.69770 2519 ft 139 kts 194°
2026-05-04 08:27 39.33413 -94.71721 1247 ft 135 kts 194°
2026-05-04 08:28 39.32502 -94.72002 1071 ft 134 kts 193°
2026-05-04 08:28 39.31609 -94.72263 999 ft 121 kts 194°
2026-05-04 08:28 39.30923 -94.72467 1003 ft 81 kts 192°
2026-05-04 08:28 39.30482 -94.72592 1008 ft 50 kts 193°
2026-05-04 08:29 39.30200 -94.72676 1014 ft 35 kts 193°
2026-05-04 08:29 39.29993 -94.72701 1017 ft 26 kts 159°
2026-05-04 08:29 39.29834 -94.72629 1017 ft 23 kts 161°
2026-05-04 08:31 39.29275 -94.72056 1022 ft 12 kts 110°
2026-05-04 08:33 39.29320 -94.71972 1022 ft 0 kts 21°
2026-05-04 08:37 39.29304 -94.71983 1022 ft 0 kts 65°
2026-05-04 08:41 39.29308 -94.71981 1022 ft 0 kts 21°
2026-05-04 08:41 39.29319 -94.71976 1022 ft 0 kts 21°
2026-05-04 08:42 39.29305 -94.71980 1022 ft 0 kts 65°
2026-05-04 08:46 39.29317 -94.71978 1024 ft 0 kts 12°